Time,TemperatureF,DewpointF,PressureIn,WindDirection,WindDirectionDegrees,WindSpeedMPH,WindSpeedGustMPH,Humidity,HourlyPrecipIn,Conditions,Clouds,dailyrainin,SolarRadiationWatts/m^2,SoftwareType,DateUTC
2013-04-30 00:03:00,62.0,51.0,29.82,WSW,252,0.0,0.0,67,0.00,,,0.00,0,weatherlink.com 1.10,2013-04-30 07:03:00,
2013-04-30 00:18:00,61.4,51.0,29.82,WSW,252,0.0,0.0,68,0.00,,,0.00,0,weatherlink.com 1.10,2013-04-30 07:18:00,
2013-04-30 00:33:00,60.8,51.0,29.82,WSW,252,0.0,2.0,69,0.00,,,0.00,0,weatherlink.com 1.10,2013-04-30 07:33:00,
2013-04-30 00:48:00,60.2,51.0,29.82,WSW,252,0.0,0.0,71,0.00,,,0.00,0,weatherlink.com 1.10,2013-04-30 07:48:00,
2013-04-30 01:03:00,59.7,51.0,29.83,WSW,252,2.0,3.0,73,0.00,,,0.00,0,weatherlink.com 1.10,2013-04-30 08:03:00,
2013-04-30 01:18:00,59.5,51.0,29.83,West,273,1.0,5.0,74,0.00,,,0.00,0,weatherlink.com 1.10,2013-04-30 08:18:00,
2013-04-30 01:33:00,59.2,51.0,29.83,West,273,0.0,2.0,75,0.00,,,0.00,0,weatherlink.com 1.10,2013-04-30 08:33:00,
2013-04-30 01:48:00,58.7,51.0,29.82,West,273,0.0,1.0,75,0.00,,,0.00,0,weatherlink.com 1.10,2013-04-30 08:48:00,
2013-04-30 02:03:00,58.3,51.0,29.82,West,273,0.0,2.0,76,0.00,,,0.00,0,weatherlink.com 1.10,2013-04-30 09:03:00,
2013-04-30 02:18:00,58.0,51.0,29.82,West,273,0.0,0.0,77,0.00,,,0.00,0,weatherlink.com 1.10,2013-04-30 09:18:00,
2013-04-30 02:33:00,57.6,51.0,29.82,West,273,0.0,1.0,78,0.00,,,0.00,0,weatherlink.com 1.10,2013-04-30 09:33:00,
2013-04-30 02:48:00,57.4,51.0,29.82,West,273,0.0,1.0,78,0.00,,,0.00,0,weatherlink.com 1.10,2013-04-30 09:48:00,
2013-04-30 03:03:00,57.1,50.0,29.82,West,273,0.0,1.0,78,0.00,,,0.00,0,weatherlink.com 1.10,2013-04-30 10:03:00,
2013-04-30 03:18:00,56.7,50.0,29.82,West,273,2.0,2.0,79,0.00,,,0.00,0,weatherlink.com 1.10,2013-04-30 10:18:00,
2013-04-30 03:33:00,56.5,50.0,29.82,West,273,2.0,2.0,79,0.00,,,0.00,0,weatherlink.com 1.10,2013-04-30 10:33:00,
2013-04-30 03:48:00,56.2,50.0,29.83,West,273,0.0,1.0,80,0.00,,,0.00,0,weatherlink.com 1.10,2013-04-30 10:48:00,
2013-04-30 04:03:00,55.9,50.0,29.83,West,273,0.0,1.0,81,0.00,,,0.00,0,weatherlink.com 1.10,2013-04-30 11:03:00,
2013-04-30 04:18:00,55.6,50.0,29.83,West,273,0.0,0.0,81,0.00,,,0.00,0,weatherlink.com 1.10,2013-04-30 11:18:00,
2013-04-30 04:33:00,55.1,50.0,29.83,West,273,0.0,1.0,83,0.00,,,0.00,0,weatherlink.com 1.10,2013-04-30 11:33:00,
2013-04-30 04:48:00,54.8,50.0,29.83,West,273,0.0,0.0,84,0.00,,,0.00,0,weatherlink.com 1.10,2013-04-30 11:48:00,
2013-04-30 05:03:00,54.5,50.0,29.83,West,273,0.0,0.0,84,0.00,,,0.00,0,weatherlink.com 1.10,2013-04-30 12:03:00,
2013-04-30 05:19:00,54.1,50.0,29.83,West,273,0.0,0.0,85,0.00,,,0.00,0,weatherlink.com 1.10,2013-04-30 12:19:00,
2013-04-30 05:34:00,53.7,50.0,29.83,West,273,0.0,0.0,86,0.00,,,0.00,0,weatherlink.com 1.10,2013-04-30 12:34:00,
2013-04-30 05:49:00,53.5,50.0,29.83,West,273,0.0,0.0,86,0.00,,,0.00,0,weatherlink.com 1.10,2013-04-30 12:49:00,
2013-04-30 06:04:00,53.4,50.0,29.84,West,273,0.0,0.0,87,0.00,,,0.00,0,weatherlink.com 1.10,2013-04-30 13:04:00,
2013-04-30 06:19:00,53.2,49.0,29.84,West,273,0.0,0.0,85,0.00,,,0.00,5,weatherlink.com 1.10,2013-04-30 13:19:00,
2013-04-30 06:34:00,53.2,49.0,29.85,West,273,0.0,0.0,85,0.00,,,0.00,12,weatherlink.com 1.10,2013-04-30 13:34:00,
2013-04-30 06:49:00,53.2,49.0,29.86,West,273,0.0,0.0,85,0.00,,,0.00,18,weatherlink.com 1.10,2013-04-30 13:49:00,
2013-04-30 07:04:00,53.8,49.0,29.86,West,273,0.0,3.0,85,0.00,,,0.00,25,weatherlink.com 1.10,2013-04-30 14:04:00,
2013-04-30 07:19:00,54.5,50.0,29.87,West,273,0.0,1.0,84,0.00,,,0.00,35,weatherlink.com 1.10,2013-04-30 14:19:00,
2013-04-30 07:34:00,55.4,50.0,29.87,West,273,0.0,1.0,82,0.00,,,0.00,90,weatherlink.com 1.10,2013-04-30 14:34:00,
2013-04-30 07:49:00,56.4,51.0,29.87,West,273,0.0,1.0,81,0.00,,,0.00,83,weatherlink.com 1.10,2013-04-30 14:49:00,
2013-04-30 08:04:00,57.4,51.0,29.87,West,273,0.0,1.0,80,0.00,,,0.00,116,weatherlink.com 1.10,2013-04-30 15:04:00,
2013-04-30 08:19:00,58.8,52.0,29.87,West,273,0.0,2.0,77,0.00,,,0.00,84,weatherlink.com 1.10,2013-04-30 15:19:00,
2013-04-30 08:34:00,59.9,51.0,29.87,SSE,150,0.0,3.0,73,0.00,,,0.00,408,weatherlink.com 1.10,2013-04-30 15:34:00,
2013-04-30 08:49:00,62.8,52.0,29.87,SSE,150,0.0,1.0,67,0.00,,,0.00,462,weatherlink.com 1.10,2013-04-30 15:49:00,
2013-04-30 09:04:00,65.2,51.0,29.86,SSE,150,1.0,2.0,61,0.00,,,0.00,515,weatherlink.com 1.10,2013-04-30 16:04:00,
2013-04-30 09:19:00,66.2,51.0,29.86,SSE,150,0.0,2.0,58,0.00,,,0.00,564,weatherlink.com 1.10,2013-04-30 16:19:00,
2013-04-30 09:34:00,66.3,51.0,29.87,WSW,246,1.0,4.0,58,0.00,,,0.00,613,weatherlink.com 1.10,2013-04-30 16:34:00,
2013-04-30 09:49:00,67.5,50.0,29.87,WSW,240,1.0,4.0,53,0.00,,,0.00,657,weatherlink.com 1.10,2013-04-30 16:49:00,
2013-04-30 10:04:00,69.1,49.0,29.87,SW,234,2.0,5.0,49,0.00,,,0.00,705,weatherlink.com 1.10,2013-04-30 17:04:00,
2013-04-30 10:19:00,70.2,49.0,29.87,West,262,3.0,6.0,47,0.00,,,0.00,745,weatherlink.com 1.10,2013-04-30 17:19:00,
2013-04-30 10:34:00,71.8,45.0,29.87,West,261,2.0,8.0,39,0.00,,,0.00,775,weatherlink.com 1.10,2013-04-30 17:34:00,
2013-04-30 10:49:00,72.6,43.0,29.87,WSW,257,5.0,8.0,35,0.00,,,0.00,809,weatherlink.com 1.10,2013-04-30 17:49:00,
2013-04-30 11:05:00,74.3,44.0,29.87,NW,304,1.0,8.0,34,0.00,,,0.00,842,weatherlink.com 1.10,2013-04-30 18:05:00,
2013-04-30 11:20:00,75.2,35.0,29.87,NW,321,0.0,10.0,23,0.00,,,0.00,870,weatherlink.com 1.10,2013-04-30 18:20:00,
2013-04-30 11:35:00,76.2,42.0,29.87,West,278,2.0,11.0,29,0.00,,,0.00,893,weatherlink.com 1.10,2013-04-30 18:35:00,
2013-04-30 11:50:00,76.0,41.0,29.87,WNW,284,1.0,7.0,29,0.00,,,0.00,918,weatherlink.com 1.10,2013-04-30 18:50:00,
2013-04-30 12:05:00,78.4,36.0,29.87,West,272,6.0,10.0,22,0.00,,,0.00,933,weatherlink.com 1.10,2013-04-30 19:05:00,
2013-04-30 12:20:00,79.6,36.0,29.86,North,355,0.0,5.0,21,0.00,,,0.00,949,weatherlink.com 1.10,2013-04-30 19:20:00,
2013-04-30 12:35:00,80.0,37.0,29.86,West,280,1.0,5.0,21,0.00,,,0.00,953,weatherlink.com 1.10,2013-04-30 19:35:00,
2013-04-30 12:50:00,80.1,37.0,29.86,West,264,2.0,7.0,21,0.00,,,0.00,954,weatherlink.com 1.10,2013-04-30 19:50:00,
2013-04-30 13:05:00,80.8,36.0,29.85,North,5,0.0,2.0,20,0.00,,,0.00,958,weatherlink.com 1.10,2013-04-30 20:05:00,
2013-04-30 13:20:00,80.9,36.0,29.85,West,276,5.0,8.0,20,0.00,,,0.00,949,weatherlink.com 1.10,2013-04-30 20:20:00,
2013-04-30 13:35:00,82.2,36.0,29.85,WNW,290,1.0,5.0,19,0.00,,,0.00,947,weatherlink.com 1.10,2013-04-30 20:35:00,
2013-04-30 13:50:00,83.3,34.0,29.84,ENE,58,0.0,6.0,17,0.00,,,0.00,935,weatherlink.com 1.10,2013-04-30 20:50:00,
2013-04-30 14:05:00,84.4,33.0,29.84,WNW,289,1.0,9.0,16,0.00,,,0.00,919,weatherlink.com 1.10,2013-04-30 21:05:00,
2013-04-30 14:20:00,83.7,33.0,29.84,West,277,2.0,8.0,16,0.00,,,0.00,898,weatherlink.com 1.10,2013-04-30 21:20:00,
2013-04-30 14:35:00,85.0,32.0,29.84,NNE,20,0.0,6.0,15,0.00,,,0.00,881,weatherlink.com 1.10,2013-04-30 21:35:00,
2013-04-30 14:50:00,85.0,32.0,29.83,West,266,1.0,4.0,15,0.00,,,0.00,853,weatherlink.com 1.10,2013-04-30 21:50:00,
2013-04-30 15:05:00,85.6,29.0,29.83,WNW,300,0.0,3.0,13,0.00,,,0.00,819,weatherlink.com 1.10,2013-04-30 22:05:00,
2013-04-30 15:20:00,85.3,27.0,29.83,NW,320,1.0,6.0,12,0.00,,,0.00,789,weatherlink.com 1.10,2013-04-30 22:20:00,
2013-04-30 15:35:00,85.8,31.0,29.83,WSW,254,0.0,5.0,14,0.00,,,0.00,756,weatherlink.com 1.10,2013-04-30 22:35:00,
2013-04-30 15:50:00,85.9,30.0,29.82,NW,317,1.0,7.0,13,0.00,,,0.00,717,weatherlink.com 1.10,2013-04-30 22:50:00,
2013-04-30 16:05:00,86.4,26.0,29.82,NNE,31,2.0,12.0,11,0.00,,,0.00,680,weatherlink.com 1.10,2013-04-30 23:05:00,
2013-04-30 16:20:00,86.2,26.0,29.82,WSW,237,2.0,3.0,11,0.00,,,0.00,636,weatherlink.com 1.10,2013-04-30 23:20:00,
2013-04-30 16:35:00,85.5,25.0,29.82,NNE,15,2.0,5.0,11,0.00,,,0.00,601,weatherlink.com 1.10,2013-04-30 23:35:00,
2013-04-30 16:50:00,85.5,29.0,29.82,WNW,289,1.0,4.0,13,0.00,,,0.00,555,weatherlink.com 1.10,2013-04-30 23:50:00,
2013-04-30 17:05:00,85.2,25.0,29.82,NNE,19,1.0,5.0,11,0.00,,,0.00,522,weatherlink.com 1.10,2013-05-01 00:05:00,
2013-04-30 17:20:00,84.5,24.0,29.82,North,9,0.0,6.0,11,0.00,,,0.00,438,weatherlink.com 1.10,2013-05-01 00:20:00,
2013-04-30 17:35:00,83.8,24.0,29.82,NNE,32,0.0,5.0,11,0.00,,,0.00,410,weatherlink.com 1.10,2013-05-01 00:35:00,
2013-04-30 17:50:00,82.9,21.0,29.82,North,355,1.0,8.0,10,0.00,,,0.00,343,weatherlink.com 1.10,2013-05-01 00:50:00,
2013-04-30 18:06:00,82.5,23.0,29.82,NNW,340,1.0,9.0,11,0.00,,,0.00,294,weatherlink.com 1.10,2013-05-01 01:06:00,
2013-04-30 18:21:00,81.7,15.0,29.83,North,5,1.0,9.0,8,0.00,,,0.00,223,weatherlink.com 1.10,2013-05-01 01:21:00,
2013-04-30 18:36:00,81.1,14.0,29.84,North,355,2.0,5.0,8,0.00,,,0.00,185,weatherlink.com 1.10,2013-05-01 01:36:00,
2013-04-30 18:51:00,80.5,17.0,29.84,NNW,334,1.0,5.0,9,0.00,,,0.00,148,weatherlink.com 1.10,2013-05-01 01:51:00,
2013-04-30 19:06:00,79.7,18.0,29.84,North,5,2.0,5.0,10,0.00,,,0.00,95,weatherlink.com 1.10,2013-05-01 02:06:00,
2013-04-30 19:21:00,78.9,20.0,29.84,NNW,344,1.0,5.0,11,0.00,,,0.00,53,weatherlink.com 1.10,2013-05-01 02:21:00,
2013-04-30 19:36:00,77.9,17.0,29.85,North,355,0.0,4.0,10,0.00,,,0.00,25,weatherlink.com 1.10,2013-05-01 02:36:00,
2013-04-30 19:51:00,76.7,20.0,29.85,West,261,0.0,2.0,12,0.00,,,0.00,11,weatherlink.com 1.10,2013-05-01 02:51:00,
2013-04-30 20:06:00,75.5,17.0,29.86,West,265,0.0,2.0,11,0.00,,,0.00,0,weatherlink.com 1.10,2013-05-01 03:06:00,
2013-04-30 20:21:00,74.2,18.0,29.86,West,265,0.0,1.0,12,0.00,,,0.00,0,weatherlink.com 1.10,2013-05-01 03:21:00,
2013-04-30 20:36:00,73.4,18.0,29.86,West,265,1.0,1.0,12,0.00,,,0.00,0,weatherlink.com 1.10,2013-05-01 03:36:00,
2013-04-30 20:51:00,72.9,19.0,29.86,West,265,0.0,2.0,13,0.00,,,0.00,0,weatherlink.com 1.10,2013-05-01 03:51:00,
2013-04-30 21:21:00,71.5,18.0,29.87,West,265,0.0,1.0,13,0.00,,,0.00,0,weatherlink.com 1.10,2013-05-01 04:21:00,
2013-04-30 21:36:00,71.5,16.0,29.87,ESE,102,1.0,3.0,12,0.00,,,0.00,0,weatherlink.com 1.10,2013-05-01 04:36:00,
2013-04-30 21:51:00,71.5,14.0,29.88,ENE,59,0.0,5.0,11,0.00,,,0.00,0,weatherlink.com 1.10,2013-05-01 04:51:00,
2013-04-30 22:06:00,71.1,14.0,29.88,ENE,59,0.0,1.0,11,0.00,,,0.00,0,weatherlink.com 1.10,2013-05-01 05:06:00,
2013-04-30 22:21:00,70.7,14.0,29.88,ENE,59,0.0,1.0,11,0.00,,,0.00,0,weatherlink.com 1.10,2013-05-01 05:21:00,
2013-04-30 22:36:00,70.7,14.0,29.88,West,266,0.0,2.0,11,0.00,,,0.00,0,weatherlink.com 1.10,2013-05-01 05:36:00,
2013-04-30 22:51:00,70.3,15.0,29.88,West,266,0.0,0.0,12,0.00,,,0.00,0,weatherlink.com 1.10,2013-05-01 05:51:00,
2013-04-30 23:06:00,69.5,16.0,29.88,North,5,0.0,1.0,13,0.00,,,0.00,0,weatherlink.com 1.10,2013-05-01 06:06:00,
2013-04-30 23:21:00,68.0,20.0,29.89,North,5,0.0,1.0,16,0.00,,,0.00,0,weatherlink.com 1.10,2013-05-01 06:21:00,
2013-04-30 23:36:00,69.4,14.0,29.89,NW,308,0.0,3.0,12,0.00,,,0.00,0,weatherlink.com 1.10,2013-05-01 06:36:00,
2013-04-30 23:51:00,71.3,12.0,29.89,NNE,26,1.0,6.0,10,0.00,,,0.00,0,weatherlink.com 1.10,2013-05-01 06:51:00,